Location: Boda
(47.1872°N, 9.5454°E)
Time: 09:48:58
(UTC+00:00)

SeaSat 1 - Pass Details

Date: 14 May 2021
Orbit: 744 x 747 km, 108.0° (Epoch: 16 June)

Event Time Altitude Azimuth Distance (km) Brightness Sun altitude
Rises 00:52:32 0° 22° (NNE) 3,202 7.3 -20.8°
Reaches altitude 10° 00:54:58 10° 13° (NNE) 2,274 6.1 -20.7°
Maximum altitude 00:59:23 34° 310° (NW) 1,221 3.6 -20.3°
Enters shadow 01:01:43 22° 263° (W) 1,584 3.8 -20.2°
